| time (UTC) | temp F | wind direction | speed MPH | gust MPH | rain 1hr in | rain 24hr in | rain mn in | humidity % | barometer mb |
| 20260506230943 | 51 | 56 | 0.0 | 4.0 | 0.00 | 1.79 | 1.79 | 98 | 1014.3 |
| 20260506230425 | 51 | 66 | 1.0 | 4.0 | 0.00 | 1.79 | 1.79 | 98 | 1014.4 |
| 20260506230029 | 51 | 57 | 1.0 | 3.0 | 0.00 | 1.79 | 1.79 | 98 | 1014.3 |
| 20260506225931 | 51 | 57 | 1.0 | 3.0 | 0.00 | 1.79 | 1.79 | 98 | 1014.4 |
| 20260506225503 | 51 | 57 | 1.0 | 3.0 | 0.00 | 1.79 | 1.79 | 98 | 1014.2 |
| 20260506224924 | 51 | 51 | 1.0 | 3.0 | 0.00 | 1.79 | 1.79 | 98 | 1014.4 |
| 20260506224515 | 50 | 68 | 0.0 | 3.0 | 0.00 | 1.79 | 1.79 | 98 | 1014.3 |
| 20260506224434 | 51 | 69 | 1.0 | 3.0 | 0.00 | 1.79 | 1.79 | 98 | 1014.5 |
| 20260506223946 | 51 | 53 | 1.0 | 3.0 | 0.00 | 1.79 | 1.79 | 98 | 1014.3 |
| 20260506223424 | 51 | 58 | 1.0 | 3.0 | 0.00 | 1.79 | 1.79 | 98 | 1014.1 |
| 20260506223018 | 51 | 53 | 0.0 | 2.0 | 0.00 | 1.79 | 1.79 | 98 | 1014.0 |
| 20260506222934 | 51 | 58 | 1.0 | 2.0 | 0.00 | 1.79 | 1.79 | 98 | 1014.3 |
| 20260506222446 | 51 | 58 | 0.0 | 2.0 | 0.00 | 1.79 | 1.79 | 98 | 1014.3 |
| 20260506221928 | 51 | 58 | 0.0 | 5.0 | 0.00 | 1.79 | 1.79 | 98 | 1013.7 |
| 20260506221526 | 50 | 111 | 1.0 | 5.0 | 0.00 | 1.79 | 1.79 | 98 | 1013.1 |
| 20260506221438 | 51 | 59 | 1.0 | 5.0 | 0.00 | 1.79 | 1.79 | 98 | 1013.3 |
| 20260506220921 | 51 | 52 | 1.0 | 5.0 | 0.00 | 1.79 | 1.79 | 98 | 1013.5 |
| 20260506220432 | 51 | 72 | 2.0 | 5.0 | 0.00 | 1.79 | 1.79 | 98 | 1013.5 |
| 20260506220014 | 50 | 45 | 0.0 | 5.0 | 0.00 | 1.79 | 1.79 | 98 | 1013.5 |
| 20260506215941 | 51 | 56 | 0.0 | 5.0 | 0.00 | 1.79 | 1.79 | 98 | 1013.7 |
| 20260506215432 | 51 | 60 | 2.0 | 5.0 | 0.00 | 1.79 | 1.79 | 98 | 1013.6 |
| 20260506214943 | 51 | 81 | 2.0 | 5.0 | 0.00 | 1.79 | 1.79 | 98 | 1013.8 |
| 20260506214611 | 50 | 57 | 1.0 | 5.0 | 0.00 | 1.79 | 1.79 | 98 | 1013.4 |
| 20260506214424 | 51 | 64 | 1.0 | 5.0 | 0.00 | 1.79 | 1.79 | 98 | 1013.6 |
| 20260506213952 | 51 | 67 | 1.0 | 7.0 | 0.00 | 1.79 | 1.79 | 98 | 1013.4 |
| 20260506213502 | 51 | 66 | 2.0 | 7.0 | 0.00 | 1.79 | 1.79 | 98 | 1013.5 |
| 20260506213032 | 50 | 53 | 2.0 | 6.0 | 0.00 | 1.79 | 1.79 | 98 | 1013.3 |
| 20260506212931 | 51 | 13 | 1.0 | 6.0 | 0.00 | 1.79 | 1.79 | 98 | 1013.5 |
| 20260506212503 | 51 | 51 | 2.0 | 6.0 | 0.00 | 1.79 | 1.79 | 98 | 1013.3 |
| 20260506211954 | 51 | 64 | 2.0 | 6.0 | 0.00 | 1.79 | 1.79 | 98 | 1013.2 |
| 20260506211601 | 50 | 73 | 2.0 | 6.0 | 0.00 | 1.79 | 1.79 | 98 | 1012.8 |
| 20260506211503 | 51 | 30 | 2.0 | 6.0 | 0.00 | 1.79 | 1.79 | 98 | 1013.0 |
| 20260506210923 | 51 | 74 | 2.0 | 6.0 | 0.00 | 1.79 | 1.79 | 98 | 1013.3 |
| 20260506210434 | 51 | 58 | 2.0 | 6.0 | 0.00 | 1.79 | 1.79 | 98 | 1013.6 |
| 20260506210025 | 50 | 70 | 2.0 | 6.0 | 0.00 | 1.79 | 1.79 | 98 | 1013.5 |
| 20260506205923 | 51 | 29 | 3.0 | 6.0 | 0.00 | 1.79 | 1.79 | 98 | 1013.9 |
| 20260506205426 | 51 | 82 | 2.0 | 5.0 | 0.00 | 1.79 | 1.79 | 98 | 1013.9 |
| 20260506204938 | 51 | 41 | 2.0 | 6.0 | 0.00 | 1.79 | 1.79 | 98 | 1013.7 |
| 20260506204533 | 51 | 13 | 1.0 | 6.0 | 0.00 | 1.79 | 1.79 | 98 | 1012.9 |
| 20260506204422 | 51 | 53 | 3.0 | 6.0 | 0.00 | 1.79 | 1.79 | 98 | 1013.1 |
| 20260506203933 | 51 | 78 | 2.0 | 5.0 | 0.00 | 1.79 | 1.79 | 98 | 1013.0 |
| 20260506203506 | 51 | 58 | 2.0 | 7.0 | 0.01 | 1.79 | 1.79 | 98 | 1013.2 |
| 20260506203105 | 50 | 72 | 1.0 | 7.0 | 0.01 | 1.79 | 1.79 | 98 | 1013.2 |
| 20260506202925 | 51 | 51 | 1.0 | 7.0 | 0.01 | 1.79 | 1.79 | 98 | 1013.4 |
| 20260506202438 | 51 | 67 | 2.0 | 6.0 | 0.01 | 1.79 | 1.79 | 98 | 1013.3 |
| 20260506201948 | 50 | 62 | 1.0 | 6.0 | 0.02 | 1.79 | 1.79 | 98 | 1013.5 |
| 20260506201508 | 50 | 75 | 1.0 | 5.0 | 0.02 | 1.79 | 1.79 | 98 | 1013.4 |
| 20260506201429 | 50 | 50 | 2.0 | 5.0 | 0.02 | 1.79 | 1.79 | 98 | 1013.8 |
| 20260506200940 | 50 | 72 | 2.0 | 6.0 | 0.02 | 1.79 | 1.79 | 98 | 1013.7 |
| 20260506200432 | 50 | 63 | 2.0 | 7.0 | 0.04 | 1.79 | 1.79 | 98 | 1013.6 |
| 20260506200057 | 49 | 345 | 1.0 | 7.0 | 0.05 | 1.79 | 1.79 | 98 | 1013.5 |
| 20260506195933 | 50 | 84 | 2.0 | 7.0 | 0.06 | 1.79 | 1.79 | 98 | 1013.8 |
| 20260506195425 | 50 | 64 | 1.0 | 4.0 | 0.08 | 1.79 | 1.79 | 98 | 1014.0 |
| 20260506194938 | 50 | 52 | 1.0 | 4.0 | 0.09 | 1.79 | 1.79 | 98 | 1014.3 |
| 20260506194502 | 49 | 65 | 0.0 | 4.0 | 0.09 | 1.79 | 1.79 | 98 | 1014.2 |
| 20260506194435 | 50 | 65 | 0.0 | 4.0 | 0.09 | 1.79 | 1.79 | 98 | 1014.4 |
| 20260506193926 | 50 | 74 | 2.0 | 4.0 | 0.09 | 1.78 | 1.78 | 98 | 1014.3 |
| 20260506193429 | 50 | 84 | 1.0 | 4.0 | 0.10 | 1.78 | 1.78 | 98 | 1014.6 |
| 20260506193005 | 49 | 50 | 1.0 | 4.0 | 0.11 | 1.78 | 1.78 | 98 | 1014.8 |
| 20260506192938 | 50 | 60 | 1.0 | 3.0 | 0.11 | 1.78 | 1.78 | 98 | 1015.1 |
| 20260506192430 | 50 | 66 | 1.0 | 2.0 | 0.11 | 1.78 | 1.78 | 98 | 1015.5 |
| 20260506191958 | 49 | 63 | 0.0 | 2.0 | 0.11 | 1.77 | 1.77 | 98 | 1015.4 |
| 20260506191557 | 49 | 56 | 1.0 | 3.0 | 0.12 | 1.77 | 1.77 | 98 | 1015.4 |
| 20260506191435 | 49 | 58 | 1.0 | 4.0 | 0.12 | 1.77 | 1.77 | 98 | 1015.8 |
| 20260506190926 | 49 | 53 | 0.0 | 4.0 | 0.13 | 1.77 | 1.77 | 98 | 1015.2 |
| 20260506190439 | 49 | 44 | 1.0 | 5.0 | 0.12 | 1.75 | 1.75 | 98 | 1014.9 |
| 20260506190103 | 48 | 69 | 1.0 | 5.0 | 0.12 | 1.74 | 1.74 | 98 | 1014.7 |
| 20260506190009 | 49 | 56 | 2.0 | 5.0 | 0.11 | 1.73 | 1.73 | 98 | 1015.0 |
| 20260506185428 | 49 | 46 | 0.0 | 4.0 | 0.09 | 1.71 | 1.71 | 98 | 1016.0 |
| 20260506184940 | 49 | 77 | 1.0 | 5.0 | 0.09 | 1.70 | 1.70 | 98 | 1015.1 |
| 20260506184547 | 48 | 65 | 2.0 | 6.0 | 0.10 | 1.70 | 1.70 | 98 | 1014.7 |
| 20260506184449 | 49 | 64 | 2.0 | 6.0 | 0.10 | 1.70 | 1.70 | 98 | 1014.9 |
| 20260506183932 | 49 | 61 | 1.0 | 7.0 | 0.10 | 1.69 | 1.69 | 98 | 1014.8 |
| 20260506183443 | 49 | 58 | 3.0 | 7.0 | 0.11 | 1.68 | 1.68 | 98 | 1014.4 |
| 20260506183058 | 48 | 58 | 3.0 | 7.0 | 0.10 | 1.67 | 1.67 | 98 | 1014.3 |
| 20260506182933 | 49 | 346 | 4.0 | 7.0 | 0.11 | 1.67 | 1.67 | 98 | 1014.6 |
| 20260506182434 | 49 | 74 | 2.0 | 6.0 | 0.11 | 1.67 | 1.67 | 98 | 1015.5 |
| 20260506181925 | 49 | 56 | 2.0 | 5.0 | 0.10 | 1.66 | 1.66 | 98 | 1015.4 |
| 20260506181543 | 49 | 53 | 1.0 | 4.0 | 0.09 | 1.65 | 1.65 | 98 | 1015.3 |
| 20260506181436 | 49 | 36 | 2.0 | 4.0 | 0.09 | 1.65 | 1.65 | 98 | 1015.7 |
| 20260506180937 | 49 | 57 | 0.0 | 3.0 | 0.09 | 1.64 | 1.64 | 98 | 1016.7 |
| 20260506180429 | 49 | 58 | 1.0 | 3.0 | 0.08 | 1.62 | 1.62 | 98 | 1016.3 |
| 20260506180047 | 48 | 353 | 0.0 | 2.0 | 0.09 | 1.62 | 1.62 | 98 | 1015.9 |
| 20260506175925 | 49 | 65 | 0.0 | 2.0 | 0.09 | 1.63 | 1.62 | 98 | 1016.0 |
| 20260506175437 | 49 | 57 | 0.0 | 5.0 | 0.10 | 1.63 | 1.62 | 98 | 1015.7 |
| 20260506174927 | 49 | 54 | 2.0 | 5.0 | 0.09 | 1.62 | 1.61 | 98 | 1015.1 |
| 20260506174534 | 48 | 69 | 1.0 | 4.0 | 0.08 | 1.61 | 1.60 | 98 | 1015.2 |
| 20260506174457 | 49 | 49 | 1.0 | 4.0 | 0.08 | 1.61 | 1.60 | 98 | 1015.6 |
| 20260506173947 | 49 | 49 | 2.0 | 4.0 | 0.06 | 1.59 | 1.58 | 98 | 1015.7 |
| 20260506173459 | 49 | 58 | 2.0 | 4.0 | 0.05 | 1.58 | 1.57 | 98 | 1015.7 |
| 20260506173129 | 49 | 66 | 2.0 | 5.0 | 0.04 | 1.57 | 1.56 | 98 | 1015.4 |
| 20260506172939 | 49 | 58 | 2.0 | 5.0 | 0.04 | 1.57 | 1.56 | 98 | 1015.8 |
| 20260506172431 | 49 | 56 | 1.0 | 5.0 | 0.04 | 1.57 | 1.56 | 98 | 1015.7 |
| 20260506171943 | 49 | 56 | 2.0 | 6.0 | 0.04 | 1.57 | 1.56 | 98 | 1015.4 |
| 20260506171552 | 49 | 51 | 2.0 | 6.0 | 0.04 | 1.57 | 1.56 | 98 | 1014.9 |
| 20260506171423 | 49 | 62 | 3.0 | 6.0 | 0.04 | 1.57 | 1.56 | 98 | 1015.2 |
| 20260506170935 | 49 | 41 | 1.0 | 6.0 | 0.03 | 1.56 | 1.55 | 98 | 1014.9 |
| 20260506170447 | 49 | 311 | 2.0 | 6.0 | 0.02 | 1.55 | 1.54 | 98 | 1014.4 |
| 20260506170100 | 48 | 63 | 1.0 | 5.0 | 0.01 | 1.54 | 1.53 | 98 | 1014.2 |
| 20260506165928 | 49 | 27 | 3.0 | 5.0 | 0.01 | 1.55 | 1.53 | 98 | 1014.4 |
| 20260506165452 | 49 | 74 | 3.0 | 5.0 | 0.00 | 1.54 | 1.52 | 98 | 1014.8 |
| 20260506164924 | 49 | 68 | 1.0 | 5.0 | 0.00 | 1.54 | 1.52 | 98 | 1015.2 |
| 20260506164544 | 48 | 56 | 0.0 | 7.0 | 0.00 | 1.54 | 1.52 | 98 | 1014.6 |
| 20260506164432 | 48 | 38 | 2.0 | 7.0 | 0.00 | 1.54 | 1.52 | 98 | 1014.9 |
| 20260506163943 | 49 | 112 | 3.0 | 6.0 | 0.00 | 1.54 | 1.52 | 98 | 1015.0 |
| 20260506163426 | 49 | 59 | 1.0 | 7.0 | 0.00 | 1.54 | 1.52 | 98 | 1015.0 |
| 20260506163009 | 48 | 65 | 2.0 | 7.0 | 0.00 | 1.54 | 1.52 | 98 | 1014.7 |
| 20260506162936 | 49 | 80 | 2.0 | 7.0 | 0.00 | 1.54 | 1.52 | 98 | 1015.1 |
| 20260506162447 | 49 | 63 | 1.0 | 6.0 | 0.00 | 1.54 | 1.52 | 98 | 1014.9 |
| 20260506161928 | 49 | 69 | 2.0 | 6.0 | 0.00 | 1.54 | 1.52 | 98 | 1014.6 |
| 20260506161516 | 48 | 72 | 2.0 | 6.0 | 0.00 | 1.54 | 1.52 | 98 | 1014.4 |
| 20260506161438 | 49 | 75 | 3.0 | 6.0 | 0.00 | 1.54 | 1.52 | 98 | 1014.9 |
| 20260506160950 | 49 | 60 | 2.0 | 6.0 | 0.00 | 1.54 | 1.52 | 98 | 1014.7 |
| 20260506160441 | 49 | 40 | 3.0 | 6.0 | 0.00 | 1.54 | 1.52 | 98 | 1014.6 |
| 20260506160003 | 48 | 44 | 1.0 | 5.0 | 0.00 | 1.54 | 1.52 | 98 | 1014.1 |
| 20260506155942 | 49 | 68 | 2.0 | 5.0 | 0.00 | 1.57 | 1.52 | 98 | 1014.4 |
| 20260506155432 | 49 | 359 | 3.0 | 6.0 | 0.00 | 1.57 | 1.52 | 98 | 1014.1 |
| 20260506154926 | 48 | 75 | 3.0 | 6.0 | 0.00 | 1.57 | 1.52 | 98 | 1014.5 |
| 20260506154557 | 48 | 68 | 3.0 | 5.0 | 0.00 | 1.57 | 1.52 | 98 | 1014.4 |
| 20260506154422 | 48 | 70 | 3.0 | 5.0 | 0.00 | 1.57 | 1.52 | 98 | 1014.8 |
| 20260506153950 | 48 | 61 | 2.0 | 8.0 | 0.00 | 1.57 | 1.52 | 98 | 1014.8 |
| 20260506153439 | 48 | 58 | 3.0 | 8.0 | 0.00 | 1.57 | 1.52 | 98 | 1014.6 |
| 20260506153015 | 48 | 65 | 1.0 | 5.0 | 0.00 | 1.57 | 1.52 | 98 | 1014.3 |
| 20260506152929 | 48 | 60 | 2.0 | 6.0 | 0.00 | 1.57 | 1.52 | 98 | 1014.6 |
| 20260506152500 | 48 | 39 | 1.0 | 7.0 | 0.00 | 1.57 | 1.52 | 98 | 1014.3 |
| 20260506151929 | 48 | 18 | 3.0 | 7.0 | 0.00 | 1.57 | 1.52 | 98 | 1014.3 |
| 20260506151544 | 48 | 68 | 3.0 | 7.0 | 0.00 | 1.57 | 1.52 | 98 | 1014.1 |
| 20260506151459 | 48 | 46 | 4.0 | 7.0 | 0.00 | 1.57 | 1.52 | 98 | 1014.5 |
| 20260506150946 | 48 | 60 | 1.0 | 8.0 | 0.00 | 1.57 | 1.52 | 98 | 1014.9 |
| 20260506150428 | 48 | 58 | 1.0 | 8.0 | 0.00 | 1.57 | 1.52 | 98 | 1014.9 |
| 20260506150027 | 48 | 64 | 3.0 | 8.0 | 0.00 | 1.57 | 1.52 | 98 | 1014.2 |
| 20260506145938 | 48 | 62 | 3.0 | 7.0 | 0.00 | 1.61 | 1.52 | 98 | 1014.6 |
| 20260506145449 | 48 | 56 | 3.0 | 7.0 | 0.00 | 1.61 | 1.52 | 98 | 1014.6 |
| 20260506144932 | 48 | 63 | 3.0 | 6.0 | 0.00 | 1.61 | 1.52 | 98 | 1014.6 |
| 20260506144553 | 48 | 63 | 1.0 | 5.0 | 0.00 | 1.61 | 1.52 | 98 | 1014.1 |
| 20260506144442 | 48 | 58 | 2.0 | 5.0 | 0.00 | 1.61 | 1.52 | 98 | 1014.5 |
| 20260506143925 | 48 | 64 | 2.0 | 6.0 | 0.00 | 1.61 | 1.52 | 98 | 1014.8 |
| 20260506143432 | 48 | 321 | 3.0 | 7.0 | 0.00 | 1.61 | 1.52 | 98 | 1014.7 |
| 20260506143051 | 47 | 70 | 2.0 | 7.0 | 0.00 | 1.61 | 1.52 | 98 | 1014.1 |
| 20260506142942 | 48 | 82 | 3.0 | 7.0 | 0.00 | 1.61 | 1.52 | 98 | 1014.4 |
| 20260506142445 | 48 | 79 | 2.0 | 7.0 | 0.00 | 1.61 | 1.52 | 98 | 1014.1 |
| 20260506141935 | 48 | 318 | 3.0 | 9.0 | 0.00 | 1.61 | 1.52 | 98 | 1014.1 |
| 20260506141530 | 47 | 80 | 2.0 | 9.0 | 0.00 | 1.61 | 1.52 | 98 | 1013.5 |
| 20260506141445 | 48 | 68 | 4.0 | 9.0 | 0.00 | 1.61 | 1.52 | 98 | 1013.9 |
| 20260506140935 | 48 | 104 | 3.0 | 7.0 | 0.00 | 1.61 | 1.52 | 98 | 1013.8 |
| 20260506140438 | 48 | 55 | 3.0 | 6.0 | 0.00 | 1.61 | 1.52 | 98 | 1013.9 |
| 20260506140020 | 47 | 333 | 2.0 | 7.0 | 0.00 | 1.61 | 1.52 | 98 | 1013.6 |
| 20260506135928 | 48 | 49 | 3.0 | 7.0 | 0.00 | 1.62 | 1.52 | 98 | 1014.0 |
| 20260506135438 | 48 | 100 | 1.0 | 6.0 | 0.00 | 1.62 | 1.52 | 98 | 1013.9 |
| 20260506134949 | 48 | 56 | 3.0 | 6.0 | 0.00 | 1.62 | 1.52 | 98 | 1014.0 |
| 20260506134503 | 47 | 101 | 1.0 | 6.0 | 0.00 | 1.62 | 1.52 | 98 | 1013.6 |
| 20260506134430 | 48 | 72 | 1.0 | 9.0 | 0.00 | 1.62 | 1.52 | 98 | 1014.1 |
| 20260506133942 | 48 | 81 | 3.0 | 9.0 | 0.01 | 1.62 | 1.52 | 98 | 1014.3 |
| 20260506133433 | 47 | 32 | 3.0 | 13.0 | 0.06 | 1.62 | 1.52 | 98 | 1014.2 |
| 20260506133128 | 47 | 62 | 5.0 | 13.0 | 0.06 | 1.62 | 1.52 | 98 | 1013.4 |
| 20260506132934 | 47 | 82 | 6.0 | 13.0 | 0.06 | 1.62 | 1.52 | 98 | 1014.0 |
| 20260506132426 | 47 | 325 | 3.0 | 9.0 | 0.06 | 1.62 | 1.52 | 98 | 1013.9 |
| 20260506131924 | 48 | 61 | 5.0 | 9.0 | 0.06 | 1.62 | 1.52 | 98 | 1014.0 |
| 20260506131603 | 47 | 93 | 4.0 | 8.0 | 0.07 | 1.62 | 1.52 | 98 | 1013.6 |
| 20260506131434 | 48 | 15 | 4.0 | 8.0 | 0.10 | 1.62 | 1.52 | 98 | 1014.0 |
| 20260506130926 | 48 | 67 | 4.0 | 8.0 | 0.20 | 1.62 | 1.52 | 98 | 1013.8 |
| 20260506130428 | 48 | 62 | 2.0 | 8.0 | 0.29 | 1.62 | 1.52 | 98 | 1014.1 |
| 20260506130006 | 47 | 19 | 2.0 | 8.0 | 0.31 | 1.62 | 1.52 | 98 | 1013.5 |
| 20260506125937 | 48 | 53 | 3.0 | 9.0 | 0.31 | 1.65 | 1.52 | 98 | 1013.9 |
| 20260506125428 | 48 | 50 | 2.0 | 9.0 | 0.32 | 1.65 | 1.52 | 98 | 1013.6 |
| 20260506124932 | 48 | 333 | 5.0 | 9.0 | 0.32 | 1.65 | 1.52 | 98 | 1013.3 |
| 20260506124514 | 47 | 37 | 2.0 | 7.0 | 0.34 | 1.65 | 1.52 | 98 | 1012.8 |
| 20260506124422 | 48 | 63 | 3.0 | 8.0 | 0.34 | 1.65 | 1.52 | 98 | 1013.1 |
| 20260506123935 | 48 | 29 | 3.0 | 8.0 | 0.33 | 1.63 | 1.50 | 98 | 1013.0 |
| 20260506123435 | 48 | 68 | 3.0 | 8.0 | 0.32 | 1.59 | 1.46 | 98 | 1013.2 |
| 20260506123034 | 47 | 53 | 2.0 | 9.0 | 0.41 | 1.59 | 1.46 | 98 | 1012.4 |
| 20260506122925 | 48 | 351 | 4.0 | 9.0 | 0.42 | 1.59 | 1.46 | 98 | 1012.9 |
| 20260506122457 | 48 | 58 | 3.0 | 9.0 | 0.44 | 1.59 | 1.46 | 98 | 1012.6 |
| 20260506121948 | 48 | 64 | 1.0 | 7.0 | 0.44 | 1.59 | 1.46 | 98 | 1013.0 |
| 20260506121509 | 47 | 63 | 3.0 | 7.0 | 0.41 | 1.56 | 1.43 | 98 | 1011.5 |
| 20260506121428 | 48 | 60 | 3.0 | 7.0 | 0.39 | 1.54 | 1.41 | 98 | 1012.2 |
| 20260506120940 | 48 | 41 | 2.0 | 6.0 | 0.30 | 1.45 | 1.32 | 98 | 1012.7 |
| 20260506120423 | 48 | 51 | 2.0 | 7.0 | 0.21 | 1.36 | 1.23 | 98 | 1012.8 |
| 20260506120024 | 48 | 63 | 1.0 | 8.0 | 0.19 | 1.34 | 1.21 | 98 | 1011.9 |
| 20260506115932 | 48 | 60 | 1.0 | 8.0 | 0.19 | 1.35 | 1.21 | 98 | 1012.3 |
| 20260506115423 | 48 | 65 | 3.0 | 6.0 | 0.18 | 1.34 | 1.20 | 98 | 1012.1 |
| 20260506114951 | 48 | 36 | 1.0 | 8.0 | 0.21 | 1.34 | 1.20 | 98 | 1012.1 |
| 20260506114509 | 48 | 110 | 0.0 | 8.0 | 0.20 | 1.32 | 1.18 | 98 | 1011.4 |
| 20260506114451 | 48 | 110 | 0.0 | 8.0 | 0.21 | 1.32 | 1.18 | 98 | 1011.6 |
| 20260506113921 | 48 | 65 | 3.0 | 8.0 | 0.25 | 1.30 | 1.16 | 98 | 1011.4 |
| 20260506113433 | 49 | 84 | 3.0 | 8.0 | 0.24 | 1.28 | 1.14 | 98 | 1011.1 |
| 20260506113056 | 48 | 56 | 3.0 | 8.0 | 0.16 | 1.19 | 1.05 | 98 | 1010.6 |
| 20260506112934 | 48 | 66 | 3.0 | 8.0 | 0.17 | 1.18 | 1.04 | 98 | 1011.3 |
| 20260506112425 | 48 | 72 | 4.0 | 8.0 | 0.16 | 1.16 | 1.02 | 98 | 1011.1 |
| 20260506111937 | 49 | 51 | 4.0 | 8.0 | 0.16 | 1.16 | 1.02 | 98 | 1010.8 |
| 20260506111602 | 48 | 64 | 1.0 | 8.0 | 0.16 | 1.15 | 1.02 | 98 | 1010.4 |
| 20260506111438 | 49 | 47 | 1.0 | 8.0 | 0.16 | 1.16 | 1.02 | 98 | 1010.9 |
| 20260506110929 | 49 | 68 | 3.0 | 7.0 | 0.17 | 1.16 | 1.02 | 98 | 1011.1 |
| 20260506110459 | 49 | 58 | 3.0 | 7.0 | 0.17 | 1.16 | 1.02 | 98 | 1010.7 |
| 20260506110048 | 48 | 65 | 1.0 | 10.0 | 0.23 | 1.15 | 1.02 | 98 | 1010.6 |
| 20260506105948 | 49 | 82 | 1.0 | 10.0 | 0.24 | 1.16 | 1.02 | 98 | 1011.0 |
| 20260506105431 | 49 | 50 | 5.0 | 10.0 | 0.24 | 1.16 | 1.02 | 98 | 1010.8 |
| 20260506104943 | 49 | 61 | 2.0 | 8.0 | 0.21 | 1.13 | 0.99 | 98 | 1010.8 |
| 20260506104604 | 49 | 69 | 4.0 | 8.0 | 0.20 | 1.12 | 0.98 | 98 | 1010.1 |
| 20260506104424 | 49 | 354 | 3.0 | 8.0 | 0.18 | 1.10 | 0.96 | 98 | 1011.0 |
| 20260506103936 | 49 | 32 | 2.0 | 8.0 | 0.13 | 1.05 | 0.91 | 98 | 1010.9 |
| 20260506103448 | 49 | 39 | 3.0 | 6.0 | 0.12 | 1.04 | 0.90 | 98 | 1010.7 |
| 20260506103002 | 49 | 62 | 1.0 | 8.0 | 0.10 | 1.02 | 0.88 | 98 | 1010.4 |
| 20260506102924 | 49 | 65 | 1.0 | 8.0 | 0.08 | 1.00 | 0.86 | 98 | 1010.9 |
| 20260506102434 | 49 | 63 | 2.0 | 8.0 | 0.09 | 1.00 | 0.86 | 98 | 1010.6 |
| 20260506101946 | 49 | 80 | 3.0 | 8.0 | 0.09 | 1.00 | 0.86 | 98 | 1010.3 |
| 20260506101534 | 49 | 48 | 4.0 | 8.0 | 0.09 | 1.00 | 0.86 | 98 | 1009.6 |
| 20260506101435 | 49 | 57 | 4.0 | 8.0 | 0.09 | 1.00 | 0.86 | 98 | 1010.3 |
| 20260506101007 | 49 | 89 | 3.0 | 6.0 | 0.08 | 0.99 | 0.85 | 98 | 1010.4 |
| 20260506100429 | 49 | 36 | 3.0 | 10.0 | 0.08 | 0.99 | 0.85 | 98 | 1010.0 |
| 20260506100020 | 49 | 72 | 5.0 | 10.0 | 0.01 | 0.92 | 0.78 | 98 | 1010.2 |
| 20260506095939 | 49 | 69 | 4.0 | 10.0 | 0.01 | 0.92 | 0.78 | 98 | 1010.8 |
| 20260506095449 | 49 | 70 | 2.0 | 7.0 | 0.01 | 0.92 | 0.78 | 98 | 1009.8 |
| 20260506094932 | 49 | 63 | 4.0 | 7.0 | 0.01 | 0.92 | 0.78 | 98 | 1010.0 |
| 20260506094527 | 49 | 77 | 0.0 | 7.0 | 0.01 | 0.92 | 0.78 | 98 | 1009.9 |
| 20260506094422 | 49 | 61 | 1.0 | 7.0 | 0.01 | 0.92 | 0.78 | 98 | 1010.6 |
| 20260506093925 | 49 | 65 | 2.0 | 8.0 | 0.02 | 0.92 | 0.78 | 98 | 1009.9 |
| 20260506093437 | 49 | 30 | 1.0 | 9.0 | 0.04 | 0.92 | 0.78 | 98 | 1009.7 |
| 20260506093036 | 49 | 63 | 3.0 | 9.0 | 0.12 | 0.92 | 0.78 | 98 | 1008.6 |
| 20260506092947 | 49 | 259 | 5.0 | 9.0 | 0.15 | 0.92 | 0.78 | 98 | 1009.4 |
| 20260506092458 | 50 | 96 | 4.0 | 9.0 | 0.15 | 0.91 | 0.77 | 98 | 1010.1 |
| 20260506091944 | 50 | 30 | 4.0 | 10.0 | 0.16 | 0.91 | 0.77 | 98 | 1010.5 |
| 20260506091605 | 49 | 32 | 3.0 | 10.0 | 0.16 | 0.91 | 0.77 | 98 | 1009.8 |
| 20260506091425 | 50 | 62 | 4.0 | 8.0 | 0.16 | 0.91 | 0.77 | 98 | 1010.1 |
| 20260506090957 | 50 | 57 | 4.0 | 8.0 | 0.16 | 0.91 | 0.77 | 98 | 1010.0 |
| 20260506090428 | 50 | 56 | 5.0 | 10.0 | 0.16 | 0.91 | 0.77 | 98 | 1009.5 |
| 20260506090052 | 49 | 51 | 2.0 | 10.0 | 0.16 | 0.91 | 0.77 | 98 | 1008.9 |
| 20260506085929 | 50 | 68 | 3.0 | 10.0 | 0.16 | 0.91 | 0.77 | 98 | 1009.5 |
| 20260506085511 | 50 | 81 | 4.0 | 10.0 | 0.17 | 0.91 | 0.77 | 98 | 1009.5 |
| 20260506084951 | 50 | 53 | 3.0 | 11.0 | 0.17 | 0.91 | 0.77 | 98 | 1009.7 |
| 20260506084516 | 50 | 44 | 4.0 | 11.0 | 0.17 | 0.91 | 0.77 | 98 | 1009.2 |
| 20260506084438 | 50 | 115 | 5.0 | 11.0 | 0.17 | 0.91 | 0.77 | 98 | 1010.0 |
| 20260506083930 | 51 | 83 | 2.0 | 7.0 | 0.16 | 0.90 | 0.76 | 98 | 1010.6 |
| 20260506083441 | 51 | 91 | 3.0 | 10.0 | 0.14 | 0.88 | 0.74 | 98 | 1010.7 |
| 20260506083002 | 50 | 87 | 2.0 | 11.0 | 0.03 | 0.77 | 0.63 | 98 | 1010.0 |
| 20260506082923 | 51 | 94 | 3.0 | 11.0 | 0.03 | 0.77 | 0.63 | 98 | 1010.3 |
| 20260506082455 | 51 | 25 | 5.0 | 11.0 | 0.02 | 0.76 | 0.62 | 98 | 1009.7 |
| 20260506081925 | 51 | 54 | 4.0 | 12.0 | 0.01 | 0.75 | 0.61 | 98 | 1009.7 |
| 20260506081533 | 50 | 42 | 4.0 | 13.0 | 0.01 | 0.75 | 0.61 | 98 | 1008.8 |
| 20260506081431 | 51 | 74 | 6.0 | 13.0 | 0.01 | 0.75 | 0.61 | 98 | 1009.2 |
| 20260506080933 | 51 | 26 | 7.0 | 13.0 | 0.01 | 0.75 | 0.61 | 98 | 1008.3 |
| 20260506080425 | 51 | 101 | 6.0 | 10.0 | 0.01 | 0.75 | 0.61 | 98 | 1008.4 |
| 20260506073433 | 53 | 111 | 4.0 | 11.0 | 0.53 | 0.74 | 0.60 | 98 | 1008.2 |
| 20260506073037 | 52 | 51 | 3.0 | 10.0 | 0.56 | 0.74 | 0.60 | 98 | 1007.7 |
| 20260506072942 | 53 | 74 | 3.0 | 10.0 | 0.57 | 0.74 | 0.60 | 98 | 1008.4 |
| 20260506072425 | 53 | 351 | 4.0 | 10.0 | 0.59 | 0.74 | 0.60 | 98 | 1008.1 |
| 20260506071937 | 53 | 46 | 5.0 | 10.0 | 0.60 | 0.74 | 0.60 | 97 | 1007.7 |
| 20260506071544 | 53 | 22 | 3.0 | 11.0 | 0.60 | 0.74 | 0.60 | 98 | 1007.0 |
| 20260506071447 | 53 | 44 | 5.0 | 11.0 | 0.60 | 0.74 | 0.60 | 98 | 1007.8 |
| 20260506070930 | 53 | 340 | 7.0 | 11.0 | 0.60 | 0.74 | 0.60 | 97 | 1007.5 |
| 20260506070441 | 53 | 70 | 4.0 | 11.0 | 0.60 | 0.74 | 0.60 | 97 | 1007.5 |
| 20260506062422 | 56 | 40 | 6.0 | 11.0 | 0.01 | 0.15 | 0.01 | 97 | 1007.1 |
| 20260506061955 | 57 | 69 | 4.0 | 12.0 | 0.00 | 0.14 | 0.00 | 96 | 1007.3 |
| 20260506061533 | 57 | 67 | 7.0 | 12.0 | 0.00 | 0.14 | 0.00 | 96 | 1006.2 |
| 20260506061443 | 58 | 79 | 7.0 | 11.0 | 0.00 | 0.14 | 0.00 | 96 | 1007.1 |
| 20260506060931 | 59 | 103 | 4.0 | 11.0 | 0.00 | 0.14 | 0.00 | 96 | 1007.3 |
| 20260506060503 | 60 | 49 | 4.0 | 11.0 | 0.00 | 0.14 | 0.00 | 96 | 1007.2 |
| 20260506050937 | 69 | 233 | 4.0 | 8.0 | 0.00 | 0.14 | 0.00 | 98 | 1005.8 |
| 20260506050449 | 69 | 243 | 4.0 | 8.0 | 0.00 | 0.14 | 0.00 | 98 | 1005.7 |
| 20260506044945 | 69 | 238 | 4.0 | 8.0 | 0.00 | 0.14 | 0.14 | 98 | 1005.5 |
| 20260506044548 | 69 | 235 | 4.0 | 8.0 | 0.00 | 0.14 | 0.14 | 98 | 1004.7 |
| 20260506044425 | 69 | 242 | 4.0 | 8.0 | 0.00 | 0.14 | 0.14 | 98 | 1005.6 |
| 20260506043936 | 69 | 217 | 4.0 | 8.0 | 0.00 | 0.14 | 0.14 | 98 | 1005.6 |
| 20260506043427 | 69 | 231 | 4.0 | 6.0 | 0.00 | 0.14 | 0.14 | 98 | 1005.9 |
| 20260506043048 | 69 | 226 | 3.0 | 5.0 | 0.00 | 0.14 | 0.14 | 98 | 1005.2 |
| 20260506042927 | 69 | 235 | 4.0 | 6.0 | 0.00 | 0.14 | 0.14 | 98 | 1006.2 |
| 20260506042434 | 69 | 235 | 4.0 | 6.0 | 0.00 | 0.14 | 0.14 | 98 | 1006.2 |
| 20260506041928 | 69 | 231 | 3.0 | 4.0 | 0.00 | 0.14 | 0.14 | 98 | 1006.3 |
| 20260506041555 | 68 | 239 | 3.0 | 4.0 | 0.00 | 0.14 | 0.14 | 98 | 1005.4 |
| 20260506041427 | 68 | 217 | 3.0 | 4.0 | 0.00 | 0.14 | 0.14 | 98 | 1006.3 |
| 20260506040938 | 69 | 231 | 3.0 | 4.0 | 0.00 | 0.14 | 0.14 | 98 | 1006.3 |
| 20260506040430 | 69 | 240 | 2.0 | 4.0 | 0.00 | 0.14 | 0.14 | 98 | 1006.3 |
| 20260506040042 | 69 | 245 | 2.0 | 4.0 | 0.00 | 0.14 | 0.14 | 98 | 1005.5 |
| 20260506035939 | 69 | 212 | 2.0 | 4.0 | 0.00 | 0.14 | 0.14 | 98 | 1006.3 |
| 20260506035422 | 69 | 224 | 1.0 | 5.0 | 0.00 | 0.14 | 0.14 | 98 | 1006.1 |
| 20260506034934 | 69 | 192 | 2.0 | 6.0 | 0.00 | 0.14 | 0.14 | 98 | 1006.0 |
| 20260506034530 | 69 | 183 | 2.0 | 6.0 | 0.00 | 0.14 | 0.14 | 98 | 1004.9 |
| 20260506034425 | 69 | 221 | 2.0 | 6.0 | 0.00 | 0.14 | 0.14 | 98 | 1005.9 |
| 20260506033955 | 69 | 202 | 4.0 | 8.0 | 0.00 | 0.14 | 0.14 | 98 | 1005.8 |
| 20260506033438 | 69 | 238 | 3.0 | 8.0 | 0.00 | 0.14 | 0.14 | 98 | 1005.7 |
| 20260506033025 | 69 | 183 | 2.0 | 7.0 | 0.00 | 0.14 | 0.14 | 98 | 1004.7 |
| 20260506032928 | 69 | 236 | 2.0 | 6.0 | 0.00 | 0.14 | 0.14 | 98 | 1005.6 |
| 20260506032439 | 69 | 234 | 4.0 | 6.0 | 0.00 | 0.14 | 0.14 | 98 | 1005.7 |
| 20260506031922 | 69 | 240 | 3.0 | 6.0 | 0.00 | 0.14 | 0.14 | 98 | 1005.8 |
| 20260506031540 | 69 | 225 | 2.0 | 6.0 | 0.00 | 0.14 | 0.14 | 98 | 1004.9 |
| 20260506031432 | 69 | 249 | 2.0 | 6.0 | 0.00 | 0.14 | 0.14 | 98 | 1005.8 |
| 20260506030924 | 69 | 248 | 3.0 | 7.0 | 0.00 | 0.14 | 0.14 | 98 | 1005.6 |
| 20260506030449 | 69 | 233 | 3.0 | 7.0 | 0.00 | 0.14 | 0.14 | 98 | 1005.4 |
| 20260506030010 | 69 | 252 | 2.0 | 7.0 | 0.00 | 0.14 | 0.14 | 98 | 1004.8 |
| 20260506025930 | 69 | 243 | 3.0 | 7.0 | 0.00 | 0.14 | 0.14 | 98 | 1005.7 |
| 20260506025442 | 69 | 205 | 4.0 | 7.0 | 0.00 | 0.14 | 0.14 | 98 | 1005.7 |
| 20260506024924 | 69 | 230 | 2.0 | 3.0 | 0.00 | 0.14 | 0.14 | 98 | 1006.0 |
| 20260506024526 | 69 | 233 | 1.0 | 4.0 | 0.00 | 0.14 | 0.14 | 98 | 1005.3 |
| 20260506024434 | 69 | 236 | 2.0 | 4.0 | 0.00 | 0.14 | 0.14 | 98 | 1006.1 |
| 20260506023945 | 69 | 188 | 1.0 | 4.0 | 0.00 | 0.14 | 0.14 | 98 | 1006.0 |
| 20260506023428 | 69 | 193 | 1.0 | 3.0 | 0.00 | 0.14 | 0.14 | 98 | 1005.5 |
| 20260506023026 | 69 | 231 | 1.0 | 3.0 | 0.00 | 0.14 | 0.14 | 98 | 1004.7 |
| 20260506022957 | 69 | 233 | 1.0 | 3.0 | 0.00 | 0.14 | 0.14 | 98 | 1005.5 |
| 20260506022422 | 70 | 169 | 0.0 | 4.0 | 0.00 | 0.14 | 0.14 | 98 | 1005.7 |
| 20260506021934 | 69 | 181 | 1.0 | 4.0 | 0.00 | 0.14 | 0.14 | 98 | 1005.9 |
| 20260506021550 | 69 | 170 | 1.0 | 5.0 | 0.00 | 0.14 | 0.14 | 98 | 1004.8 |
| 20260506021503 | 69 | 242 | 1.0 | 5.0 | 0.00 | 0.14 | 0.14 | 98 | 1005.6 |
| 20260506020925 | 69 | 234 | 1.0 | 5.0 | 0.00 | 0.14 | 0.14 | 98 | 1005.8 |
| 20260506020437 | 69 | 209 | 1.0 | 4.0 | 0.00 | 0.14 | 0.14 | 98 | 1005.6 |
| 20260506020038 | 69 | 184 | 1.0 | 4.0 | 0.00 | 0.14 | 0.14 | 98 | 1004.8 |
| 20260506015947 | 69 | 218 | 2.0 | 4.0 | 0.00 | 0.14 | 0.14 | 98 | 1005.7 |
| 20260506015429 | 69 | 240 | 2.0 | 4.0 | 0.00 | 0.14 | 0.14 | 98 | 1005.8 |
| 20260506014936 | 69 | 189 | 2.0 | 4.0 | 0.00 | 0.14 | 0.14 | 98 | 1005.8 |
| 20260506014546 | 69 | 244 | 2.0 | 5.0 | 0.00 | 0.14 | 0.14 | 98 | 1004.8 |
| 20260506014446 | 69 | 230 | 2.0 | 5.0 | 0.00 | 0.14 | 0.14 | 98 | 1005.7 |
| 20260506013949 | 69 | 233 | 3.0 | 5.0 | 0.00 | 0.14 | 0.14 | 98 | 1005.5 |
| 20260506013440 | 69 | 247 | 2.0 | 4.0 | 0.00 | 0.14 | 0.14 | 98 | 1005.5 |
| 20260506013033 | 69 | 212 | 2.0 | 4.0 | 0.00 | 0.14 | 0.14 | 98 | 1004.6 |
| 20260506012929 | 69 | 207 | 2.0 | 4.0 | 0.00 | 0.14 | 0.14 | 98 | 1005.5 |
| 20260506012438 | 69 | 185 | 2.0 | 4.0 | 0.00 | 0.14 | 0.14 | 98 | 1005.5 |
| 20260506011947 | 69 | 238 | 2.0 | 4.0 | 0.00 | 0.14 | 0.14 | 98 | 1005.5 |
| 20260506011601 | 69 | 200 | 1.0 | 4.0 | 0.00 | 0.14 | 0.14 | 98 | 1004.6 |
| 20260506011457 | 69 | 221 | 2.0 | 5.0 | 0.00 | 0.14 | 0.14 | 98 | 1005.5 |
| 20260506010937 | 69 | 205 | 2.0 | 5.0 | 0.00 | 0.14 | 0.14 | 98 | 1005.4 |
| 20260506010430 | 69 | 184 | 1.0 | 4.0 | 0.00 | 0.14 | 0.14 | 98 | 1005.3 |
| 20260506010058 | 69 | 188 | 2.0 | 6.0 | 0.00 | 0.14 | 0.14 | 98 | 1004.3 |
| 20260506005931 | 69 | 198 | 2.0 | 6.0 | 0.00 | 0.14 | 0.14 | 98 | 1005.3 |
| 20260506005421 | 69 | 196 | 3.0 | 7.0 | 0.00 | 0.14 | 0.14 | 98 | 1005.0 |
| 20260506004932 | 69 | 250 | 3.0 | 7.0 | 0.00 | 0.14 | 0.14 | 98 | 1005.0 |
| 20260506004532 | 69 | 241 | 2.0 | 6.0 | 0.00 | 0.14 | 0.14 | 98 | 1004.1 |
| 20260506004438 | 69 | 233 | 2.0 | 6.0 | 0.00 | 0.14 | 0.14 | 98 | 1005.0 |
| 20260506003947 | 69 | 212 | 3.0 | 6.0 | 0.00 | 0.14 | 0.14 | 98 | 1005.0 |
| 20260506003429 | 69 | 243 | 2.0 | 4.0 | 0.00 | 0.14 | 0.14 | 98 | 1004.9 |
| 20260506003017 | 69 | 245 | 1.0 | 6.0 | 0.00 | 0.14 | 0.14 | 98 | 1004.0 |
| 20260506002939 | 69 | 245 | 2.0 | 6.0 | 0.00 | 0.14 | 0.14 | 98 | 1004.9 |
| 20260506002421 | 69 | 252 | 2.0 | 7.0 | 0.00 | 0.14 | 0.14 | 98 | 1004.5 |
| 20260506001933 | 69 | 220 | 2.0 | 7.0 | 0.00 | 0.14 | 0.14 | 98 | 1004.6 |
| 20260506001529 | 69 | 250 | 2.0 | 5.0 | 0.00 | 0.14 | 0.14 | 98 | 1004.0 |
| 20260506001422 | 70 | 237 | 2.0 | 5.0 | 0.00 | 0.14 | 0.14 | 98 | 1004.9 |
| 20260506000925 | 70 | 231 | 2.0 | 4.0 | 0.00 | 0.14 | 0.14 | 98 | 1005.0 |
| 20260506000456 | 70 | 208 | 1.0 | 4.0 | 0.00 | 0.14 | 0.14 | 98 | 1005.0 |
| 20260506000014 | 69 | 257 | 2.0 | 4.0 | 0.00 | 0.14 | 0.14 | 98 | 1004.2 |
| 20260505235925 | 70 | 229 | 2.0 | 4.0 | 0.00 | 0.14 | 0.14 | 98 | 1005.0 |
| 20260505235436 | 70 | 160 | 2.0 | 4.0 | 0.00 | 0.14 | 0.14 | 98 | 1005.2 |
| 20260505234940 | 69 | 220 | 2.0 | 4.0 | 0.00 | 0.14 | 0.14 | 98 | 1005.0 |
| 20260505234519 | 69 | 161 | 1.0 | 5.0 | 0.00 | 0.14 | 0.14 | 98 | 1004.0 |
| 20260505234428 | 69 | 167 | 1.0 | 5.0 | 0.00 | 0.14 | 0.14 | 98 | 1004.9 |
| 20260505234000 | 69 | 203 | 2.0 | 5.0 | 0.00 | 0.14 | 0.14 | 98 | 1004.8 |
| 20260505233431 | 69 | 228 | 2.0 | 6.0 | 0.00 | 0.14 | 0.14 | 98 | 1005.0 |
| 20260505233100 | 69 | 149 | 2.0 | 6.0 | 0.00 | 0.14 | 0.14 | 98 | 1003.8 |
| 20260505232928 | 69 | 184 | 2.0 | 6.0 | 0.00 | 0.14 | 0.14 | 98 | 1004.6 |
| 20260505232440 | 69 | 216 | 3.0 | 5.0 | 0.00 | 0.14 | 0.14 | 98 | 1004.7 |
| 20260505231931 | 69 | 231 | 2.0 | 4.0 | 0.00 | 0.14 | 0.14 | 98 | 1005.0 |
| 20260505231535 | 69 | 179 | 1.0 | 3.0 | 0.00 | 0.14 | 0.14 | 98 | 1004.1 |
| 20260505231440 | 69 | 238 | 1.0 | 3.0 | 0.00 | 0.14 | 0.14 | 98 | 1005.0 |